Regional Weather Roundup
Issued by NWS Cleveland, OH

Home | Current Version | Previous Version | Graphics & Text | Print | Product List | Glossary On
Versions: 1 2 3 4 5 6 7 8 9 10 11 12 13 14 15 16 17 18 19 20 21 22 23 24 25 26 27 28 29 30 31 32 33 34 35 36 37 38 39 40 41 42 43 44 45 46 47 48 49 50
000
ASUS41 KCLE 071300
RWRCLE
OHIO REGIONAL WEATHER ROUNDUP
NATIONAL WEATHER SERVICE WILMINGTON, OH
900 AM EDT TUE JUL 07 2015

NOTE: "FAIR" INDICATES FEW OR NO CLOUDS BELOW 12,000 FEET WITH NO
SIGNIFICANT WEATHER AND/OR OBSTRUCTIONS TO VISIBILITY.

OHZ001>008-015>018-024>027-034-035-043-044-071400-
   NORTHWEST OHIO

CITY           SKY/WX    TMP DP  RH WIND       PRES   REMARKS
DEFIANCE       CLOUDY    77  72  84 SW10      29.89S
FINDLAY        PTSUNNY   79  72  79 SW15      29.91F
TOLEDO EXPRESS CLOUDY    76  71  85 SW12      29.89S
TOLEDO EXEC    CLOUDY    78  70  76 SW16G23   29.90S
LIMA           PTSUNNY   76  71  85 S12G22    29.94S
$$

OHZ009>014-019>023-028>033-038-089-071400-
   NORTHEAST OHIO

CITY           SKY/WX    TMP DP  RH WIND       PRES   REMARKS
CLE-HOPKINS    MOSUNNY   76  68  76 S16G22    29.96S
CLE-LAKEFRONT  PTSUNNY   77  68  73 S12       29.92S
CUY CO. ARPT   PTSUNNY   77  70  78 SW14      29.95S
LORAIN-ELYRIA  MOSUNNY   75  69  81 SW14      29.95S
ASHTABULA      SUNNY     72  67  84 S12       29.97F
AKRON-CANTON   MOSUNNY   74  67  78 S10       30.00S
WOOSTER        NOT AVBL
MANSFIELD      MOSUNNY   75  70  84 S12G20    29.99R
YOUNGSTOWN     MOSUNNY   73  68  84 S8        30.00F
$$

OHZ042-051>053-060>062-070>072-077>081-071400-
  SOUTHWEST OHIO

CITY           SKY/WX    TMP DP  RH WIND       PRES   REMARKS
CINC-COVINGTON CLOUDY    75  71  87 S12       30.00S
CINC-LUNKEN    CLOUDY    76  72  87 SW9       30.00R
HAMILTON       CLOUDY    77  72  84 SW8       29.99S
DAYTON         NOT AVBL
WRIGHT-PAT AFB NOT AVBL
DAYTON GENERAL CLOUDY    76  71  85 SW9       29.98S
WILMINGTON     CLOUDY    74  70  87 S10       30.00S
$$

OHZ036-037-039>041-045>050-054>059-063>069-073>076-082>088-071400-
  CENTRAL AND SOUTHEAST OHIO

CITY           SKY/WX    TMP DP  RH WIND       PRES   REMARKS
COLUMBUS       CLOUDY    74  69  85 S12       29.99F
OSU AIRPORT    CLOUDY    74  70  87 S10       29.99S
BOLTON FIELD   PTSUNNY   73  72  94 S9        30.00  FOG
RICKENBACK AFB NOT AVBL
NEWARK         CLOUDY    75  70  84 SW9       30.00S
MARION         CLOUDY    74  69  85 SW13      29.98R HAZE
LANCASTER      PTSUNNY   75  69  81 SW9       30.01F
ZANESVILLE     MOSUNNY   73  67  81 S8        30.02S HAZE
NEW PHILLY     SUNNY     72  69  90 S5        30.02S
$$



USA.gov is the U.S. government's official web portal to all federal, state and local government web resources and services.